Location: Rounton
(54.4000°N, 1.3500°W)
Time: 12:26:02
(UTC+01:00)

Envisat - Visible Passes

Search period start: 23 October 2021 00:00
Search period end: 01 November 2021 23:00
Orbit: 764 x 766 km, 98.2° (Epoch: 22 October)

Date Brightness Start Highest point End Pass type
(mag) Time Alt. Az. Time Alt. Az. Time Alt. Az.
23 Oct 4.1 05:54:45 10° NNE 05:59:40 46° E 06:04:33 10° S visible
23 Oct 6.3 18:58:41 10° WSW 19:01:06 13° W 19:03:31 10° NW visible
24 Oct 5.3 05:18:19 10° NE 05:22:30 25° E 05:26:39 10° SE visible
24 Oct 3.0 06:56:54 10° N 07:01:56 62° WNW 07:06:57 10° SSW visible
24 Oct 5.7 18:19:34 10° SW 18:23:44 25° W 18:27:55 10° NW visible
25 Oct 6.1 04:42:42 10° NE 04:45:08 13° E 04:47:34 10° ESE visible
25 Oct 3.3 06:19:59 10° NNE 06:25:06 72° ESE 06:30:10 10° S visible
26 Oct 4.5 05:43:18 10° NNE 05:48:04 38° E 05:52:48 10° SSE visible
26 Oct 6.1 18:46:15 10° SW 18:49:23 16° W 18:52:33 10° NW visible
27 Oct 5.5 05:07:01 10° NE 05:10:51 21° E 05:14:38 10° SE visible
27 Oct 2.9 06:45:20 10° NNE 06:50:26 75° WNW 06:55:30 10° SSW visible
28 Oct 6.2 04:32:14 10° ENE 04:33:24 11° E 04:34:35 10° E visible
28 Oct 3.6 06:08:29 10° NNE 06:13:32 60° ESE 06:18:33 10° S visible
29 Oct 4.8 05:31:54 10° NNE 05:36:27 32° E 05:40:58 10° SSE visible
29 Oct 3.2 07:10:47 10° N 07:15:40 49° WNW 07:20:34 10° SW visible
29 Oct 5.9 18:34:03 10° SW 18:37:42 20° W 18:41:22 10° NW visible
30 Oct 5.8 04:55:50 10° NE 04:59:09 17° E 05:02:29 10° SE visible
30 Oct 3.0 06:33:47 10° NNE 06:38:55 89° WNW 06:44:00 10° SSW visible
31 Oct 4.0 04:57:00 10° NNE 05:01:57 49° E 05:06:52 10° S visible
31 Oct 6.3 18:01:18 10° WSW 18:03:25 12° W 18:05:33 10° WNW visible
01 Nov 5.1 04:20:31 10° NE 04:24:48 26° E 04:29:04 10° SSE visible
01 Nov 3.0 05:59:11 10° N 06:04:12 59° WNW 06:09:11 10° SSW visible
01 Nov 5.7 17:21:58 10° SW 17:26:01 24° W 17:30:06 10° NW visible
